N711RL KSYR-KPIT

Flight info

Callsign N711RL
Flight time 1h 8m
Altitude 30000
Route SYR PTAKI STUBN SFK SLT HAYNZ7
Aircraft SF50/L-BDGRSWY/LB2U2

Departure

Time 2026-04-29 20:16
Airport Syracuse Hancock International Airport (KSYR)

Arrival

Time 2026-04-29 21:24
Airport Pittsburgh International Airport (KPIT)
Time Latitude Longitude Altitude Speed Heading
2026-04-29 20:01 43.10566 -76.11352 414 ft 0 kts 118°
2026-04-29 20:09 43.10566 -76.11349 414 ft 2 kts 85°
2026-04-29 20:09 43.10615 -76.11318 413 ft 10 kts 26°
2026-04-29 20:09 43.10679 -76.11294 414 ft 10 kts 354°
2026-04-29 20:09 43.10745 -76.11297 415 ft 8 kts 357°
2026-04-29 20:10 43.10786 -76.11300 416 ft 4 kts 356°
2026-04-29 20:10 43.10870 -76.11262 414 ft 23 kts 30°
2026-04-29 20:10 43.10973 -76.11158 412 ft 12 kts 54°
2026-04-29 20:10 43.10994 -76.11086 418 ft 8 kts 83°
2026-04-29 20:11 43.10999 -76.10960 415 ft 18 kts 86°
2026-04-29 20:11 43.11007 -76.10792 412 ft 15 kts 77°
2026-04-29 20:11 43.11060 -76.10727 412 ft 8 kts 14°
2026-04-29 20:11 43.11118 -76.10723 412 ft 13 kts 355°
2026-04-29 20:12 43.11271 -76.10730 416 ft 28 kts 356°
2026-04-29 20:12 43.11459 -76.10743 412 ft 25 kts
2026-04-29 20:12 43.11580 -76.10764 411 ft 13 kts 327°
2026-04-29 20:12 43.11639 -76.10843 410 ft 16 kts 314°
2026-04-29 20:13 43.11757 -76.11006 412 ft 29 kts 314°
2026-04-29 20:13 43.11842 -76.11126 413 ft 23 kts 315°
2026-04-29 20:13 43.11944 -76.11272 418 ft 8 kts 313°
2026-04-29 20:13 43.11982 -76.11329 418 ft 14 kts 313°
2026-04-29 20:14 43.12052 -76.11356 417 ft 4 kts 34°
2026-04-29 20:14 43.12056 -76.11352 417 ft 0 kts 40°
2026-04-29 20:14 43.12057 -76.11352 417 ft 2 kts 40°
2026-04-29 20:15 43.12088 -76.11311 418 ft 5 kts 43°
2026-04-29 20:15 43.12102 -76.11293 416 ft 4 kts 45°
2026-04-29 20:15 43.12107 -76.11255 415 ft 3 kts 133°
2026-04-29 20:15 43.11963 -76.11052 411 ft 64 kts 134°
2026-04-29 20:16 43.11558 -76.10460 637 ft 93 kts 134°
2026-04-29 20:16 43.11090 -76.09707 1018 ft 121 kts 135°
2026-04-29 20:16 43.10408 -76.08869 1536 ft 143 kts 140°
2026-04-29 20:16 43.09648 -76.07849 2056 ft 161 kts 139°
2026-04-29 20:17 43.08872 -76.06775 2871 ft 157 kts 139°
2026-04-29 20:17 43.08117 -76.05685 3604 ft 158 kts 138°
2026-04-29 20:17 43.07368 -76.04573 4302 ft 160 kts 138°
2026-04-29 20:17 43.06525 -76.03633 4927 ft 156 kts 164°
2026-04-29 20:18 43.05484 -76.03772 5557 ft 155 kts 205°
2026-04-29 20:18 43.04535 -76.04523 6160 ft 158 kts 209°
2026-04-29 20:18 43.03591 -76.05283 6742 ft 159 kts 217°
2026-04-29 20:18 43.02843 -76.06439 7244 ft 165 kts 228°
2026-04-29 20:19 43.02093 -76.07604 7863 ft 162 kts 224°
2026-04-29 20:19 43.01310 -76.08724 8407 ft 165 kts 223°
2026-04-29 20:19 43.00520 -76.09857 8948 ft 166 kts 223°
2026-04-29 20:19 42.99720 -76.10995 9505 ft 166 kts 222°
2026-04-29 20:20 42.98919 -76.12140 9967 ft 169 kts 223°
2026-04-29 20:20 42.98107 -76.13301 10487 ft 169 kts 223°
2026-04-29 20:20 42.97292 -76.14462 10968 ft 171 kts 223°
2026-04-29 20:20 42.96468 -76.15637 11417 ft 172 kts 223°
2026-04-29 20:21 42.95636 -76.16823 11913 ft 173 kts 223°
2026-04-29 20:21 42.94810 -76.17996 12404 ft 175 kts 223°
2026-04-29 20:21 42.93961 -76.19202 12872 ft 177 kts 224°
2026-04-29 20:21 42.93110 -76.20415 13406 ft 178 kts 224°
2026-04-29 20:22 42.92247 -76.21642 13852 ft 180 kts 224°
2026-04-29 20:22 42.91377 -76.22877 14274 ft 181 kts 225°
2026-04-29 20:22 42.90506 -76.24117 14754 ft 181 kts 225°
2026-04-29 20:22 42.89633 -76.25354 15249 ft 182 kts 226°
2026-04-29 20:23 42.88755 -76.26603 15709 ft 183 kts 227°
2026-04-29 20:23 42.87874 -76.27859 16177 ft 184 kts 227°
2026-04-29 20:23 42.86983 -76.29123 16641 ft 185 kts 228°
2026-04-29 20:23 42.86089 -76.30390 17093 ft 185 kts 229°
2026-04-29 20:24 42.85195 -76.31660 17528 ft 187 kts 229°
2026-04-29 20:24 42.84291 -76.32944 17988 ft 188 kts 230°
2026-04-29 20:24 42.83378 -76.34236 18400 ft 189 kts 230°
2026-04-29 20:24 42.82467 -76.35525 18784 ft 188 kts 230°
2026-04-29 20:25 42.81558 -76.36816 19156 ft 189 kts 230°
2026-04-29 20:25 42.80645 -76.38105 19570 ft 189 kts 230°
2026-04-29 20:25 42.79733 -76.39395 20004 ft 189 kts 229°
2026-04-29 20:25 42.78823 -76.40678 20482 ft 188 kts 229°
2026-04-29 20:26 42.77913 -76.41961 20997 ft 187 kts 229°
2026-04-29 20:26 42.77017 -76.43225 21570 ft 184 kts 229°
2026-04-29 20:26 42.76119 -76.44495 21854 ft 194 kts 229°
2026-04-29 20:26 42.75137 -76.45885 21857 ft 211 kts 229°
2026-04-29 20:27 42.74086 -76.47366 21868 ft 223 kts 229°
2026-04-29 20:27 42.73362 -76.48385 21865 ft 230 kts 229°
2026-04-29 20:27 42.71834 -76.50536 21862 ft 241 kts 228°
2026-04-29 20:27 42.70654 -76.52196 21868 ft 248 kts 228°
2026-04-29 20:28 42.69445 -76.53895 21864 ft 253 kts 228°
2026-04-29 20:28 42.68242 -76.55586 22145 ft 245 kts 228°
2026-04-29 20:28 42.67108 -76.57173 23065 ft 217 kts 228°
2026-04-29 20:28 42.66135 -76.58538 23928 ft 190 kts 228°
2026-04-29 20:29 42.65251 -76.59743 24568 ft 176 kts 224°
2026-04-29 20:29 42.64250 -76.60714 24887 ft 178 kts 216°
2026-04-29 20:29 42.63166 -76.61535 25225 ft 178 kts 215°
2026-04-29 20:29 42.62101 -76.62363 25571 ft 177 kts 215°
2026-04-29 20:30 42.61028 -76.63190 25853 ft 179 kts 214°
2026-04-29 20:30 42.59897 -76.64067 25862 ft 194 kts 214°
2026-04-29 20:30 42.58686 -76.64995 25867 ft 206 kts 214°
2026-04-29 20:30 42.57414 -76.65972 25870 ft 215 kts 213°
2026-04-29 20:31 42.56081 -76.66992 25867 ft 224 kts 213°
2026-04-29 20:31 42.54707 -76.68045 25869 ft 231 kts 213°
2026-04-29 20:31 42.53292 -76.69128 25867 ft 236 kts 213°
2026-04-29 20:31 42.51847 -76.70233 25874 ft 241 kts 213°
2026-04-29 20:32 42.50371 -76.71361 25867 ft 245 kts 213°
2026-04-29 20:32 42.48878 -76.72503 25863 ft 248 kts 213°
2026-04-29 20:32 42.47364 -76.73659 25864 ft 251 kts 213°
2026-04-29 20:32 42.46353 -76.74432 25864 ft 253 kts 213°
2026-04-29 20:33 42.44285 -76.76010 25873 ft 257 kts 213°
2026-04-29 20:33 42.42723 -76.77200 25864 ft 259 kts 213°
2026-04-29 20:33 42.41142 -76.78408 25863 ft 262 kts 213°
2026-04-29 20:33 42.39551 -76.79620 25858 ft 264 kts 212°
2026-04-29 20:34 42.37940 -76.80846 25854 ft 266 kts 212°
2026-04-29 20:34 42.36322 -76.82077 25856 ft 268 kts 212°
2026-04-29 20:34 42.34686 -76.83322 25865 ft 271 kts 212°
2026-04-29 20:34 42.33038 -76.84575 25852 ft 272 kts 212°
2026-04-29 20:35 42.31391 -76.85826 25852 ft 274 kts 212°
2026-04-29 20:35 42.29723 -76.87092 25849 ft 275 kts 212°
2026-04-29 20:35 42.28070 -76.88349 25846 ft 276 kts 212°
2026-04-29 20:35 42.26366 -76.89640 25852 ft 277 kts 212°
2026-04-29 20:36 42.24679 -76.90919 25856 ft 279 kts 212°
2026-04-29 20:36 42.22988 -76.92202 25844 ft 280 kts 212°
2026-04-29 20:36 42.21290 -76.93487 25846 ft 281 kts 212°
2026-04-29 20:36 42.19603 -76.94762 25852 ft 282 kts 212°
2026-04-29 20:37 42.17888 -76.96061 25846 ft 283 kts 212°
2026-04-29 20:37 42.16179 -76.97353 25841 ft 279 kts 212°
2026-04-29 20:37 42.14497 -76.98621 25846 ft 275 kts 212°
2026-04-29 20:37 42.12833 -76.99877 25841 ft 274 kts 212°
2026-04-29 20:38 42.11174 -77.01130 25836 ft 274 kts 212°
2026-04-29 20:38 42.09518 -77.02395 25842 ft 273 kts 214°
2026-04-29 20:38 42.07988 -77.03892 25840 ft 271 kts 219°
2026-04-29 20:38 42.06471 -77.05416 25844 ft 272 kts 218°
2026-04-29 20:39 42.04939 -77.06918 25842 ft 272 kts 218°
2026-04-29 20:39 42.03410 -77.08437 25839 ft 273 kts 219°
2026-04-29 20:39 42.01890 -77.09960 25846 ft 273 kts 219°
2026-04-29 20:39 42.00361 -77.11485 25843 ft 273 kts 218°
2026-04-29 20:40 41.99351 -77.12487 25843 ft 273 kts 219°
2026-04-29 20:40 41.97823 -77.14006 25843 ft 273 kts 218°
2026-04-29 20:40 41.96293 -77.15526 25842 ft 273 kts 219°
2026-04-29 20:40 41.94769 -77.17042 25843 ft 273 kts 219°
2026-04-29 20:41 41.93237 -77.18562 25852 ft 273 kts 219°
2026-04-29 20:41 41.91708 -77.20078 25854 ft 273 kts 219°
2026-04-29 20:41 41.90181 -77.21592 25859 ft 273 kts 219°
2026-04-29 20:41 41.88157 -77.23598 25850 ft 273 kts 219°
2026-04-29 20:42 41.87120 -77.24623 25857 ft 273 kts 219°
2026-04-29 20:42 41.85098 -77.26625 25850 ft 272 kts 219°
2026-04-29 20:42 41.84068 -77.27644 25848 ft 272 kts 219°
2026-04-29 20:42 41.82543 -77.29154 25849 ft 273 kts 219°
2026-04-29 20:43 41.81021 -77.30657 25855 ft 272 kts 219°
2026-04-29 20:43 41.79503 -77.32158 25861 ft 273 kts 219°
2026-04-29 20:43 41.77972 -77.33670 25856 ft 273 kts 219°
2026-04-29 20:43 41.76461 -77.35160 25856 ft 273 kts 219°
2026-04-29 20:44 41.74913 -77.36686 25853 ft 273 kts 219°
2026-04-29 20:44 41.73382 -77.38194 25855 ft 273 kts 219°
2026-04-29 20:44 41.71849 -77.39705 25853 ft 273 kts 219°
2026-04-29 20:44 41.70437 -77.41386 25846 ft 271 kts 228°
2026-04-29 20:45 41.69266 -77.43350 25846 ft 271 kts 236°
2026-04-29 20:45 41.68360 -77.45530 25846 ft 272 kts 244°
2026-04-29 20:45 41.67604 -77.47879 25845 ft 271 kts 245°
2026-04-29 20:45 41.66839 -77.50178 25849 ft 271 kts 244°
2026-04-29 20:46 41.66081 -77.52452 25852 ft 271 kts 245°
2026-04-29 20:46 41.65319 -77.54761 25850 ft 271 kts 245°
2026-04-29 20:46 41.64564 -77.57062 25859 ft 271 kts 245°
2026-04-29 20:46 41.63800 -77.59373 25847 ft 270 kts 245°
2026-04-29 20:47 41.63049 -77.61640 25638 ft 266 kts 245°
2026-04-29 20:47 41.62307 -77.63881 25395 ft 261 kts 245°
2026-04-29 20:47 41.61580 -77.66081 25149 ft 258 kts 245°
2026-04-29 20:47 41.60852 -77.68278 24903 ft 259 kts 245°
2026-04-29 20:48 41.60122 -77.70471 24671 ft 259 kts 245°
2026-04-29 20:48 41.59390 -77.72678 24435 ft 259 kts 245°
2026-04-29 20:48 41.58659 -77.74883 24205 ft 259 kts 245°
2026-04-29 20:48 41.57927 -77.77085 23969 ft 260 kts 245°
2026-04-29 20:49 41.57190 -77.79293 23738 ft 260 kts 245°
2026-04-29 20:49 41.56453 -77.81507 23516 ft 261 kts 245°
2026-04-29 20:49 41.55718 -77.83711 23261 ft 260 kts 245°
2026-04-29 20:49 41.54980 -77.85922 22986 ft 261 kts 245°
2026-04-29 20:50 41.54247 -77.88120 22722 ft 260 kts 245°
2026-04-29 20:50 41.53507 -77.90340 22455 ft 261 kts 245°
2026-04-29 20:50 41.52769 -77.92548 22195 ft 261 kts 245°
2026-04-29 20:50 41.52028 -77.94766 21930 ft 263 kts 245°
2026-04-29 20:51 41.51284 -77.96986 21671 ft 261 kts 246°
2026-04-29 20:51 41.50580 -77.99224 21405 ft 262 kts 247°
2026-04-29 20:51 41.49877 -78.01468 21144 ft 263 kts 246°
2026-04-29 20:51 41.49170 -78.03713 20900 ft 263 kts 247°
2026-04-29 20:52 41.48463 -78.05963 20644 ft 264 kts 246°
2026-04-29 20:52 41.47755 -78.08212 20393 ft 264 kts 246°
2026-04-29 20:52 41.47042 -78.10470 20144 ft 263 kts 246°
2026-04-29 20:52 41.46332 -78.12721 19897 ft 264 kts 247°
2026-04-29 20:53 41.45618 -78.14984 19652 ft 265 kts 247°
2026-04-29 20:53 41.44906 -78.17240 19417 ft 266 kts 247°
2026-04-29 20:53 41.44197 -78.19485 19174 ft 266 kts 246°
2026-04-29 20:53 41.43476 -78.21764 18935 ft 266 kts 246°
2026-04-29 20:54 41.42037 -78.26305 18466 ft 267 kts 246°
2026-04-29 20:54 41.41313 -78.28581 18232 ft 268 kts 247°
2026-04-29 20:54 41.40587 -78.30870 17983 ft 269 kts 247°
2026-04-29 20:55 41.39855 -78.33173 17712 ft 270 kts 247°
2026-04-29 20:55 41.39118 -78.35481 17450 ft 270 kts 247°
2026-04-29 20:55 41.38385 -78.37790 17184 ft 272 kts 247°
2026-04-29 20:55 41.37649 -78.40103 16918 ft 272 kts 247°
2026-04-29 20:56 41.36904 -78.42430 16668 ft 274 kts 247°
2026-04-29 20:56 41.36157 -78.44772 16414 ft 275 kts 247°
2026-04-29 20:56 41.35411 -78.47109 16152 ft 276 kts 247°
2026-04-29 20:56 41.34661 -78.49454 15903 ft 276 kts 247°
2026-04-29 20:57 41.33907 -78.51812 15648 ft 277 kts 247°
2026-04-29 20:57 41.33150 -78.54173 15403 ft 277 kts 247°
2026-04-29 20:57 41.32392 -78.56541 15146 ft 278 kts 247°
2026-04-29 20:57 41.31633 -78.58908 14890 ft 279 kts 247°
2026-04-29 20:58 41.30870 -78.61285 14650 ft 278 kts 247°
2026-04-29 20:58 41.30115 -78.63637 14410 ft 277 kts 247°
2026-04-29 20:58 41.29358 -78.65989 14166 ft 276 kts 247°
2026-04-29 20:58 41.28604 -78.68329 13927 ft 275 kts 247°
2026-04-29 20:59 41.27852 -78.70664 13685 ft 274 kts 247°
2026-04-29 20:59 41.27103 -78.72984 13437 ft 273 kts 247°
2026-04-29 20:59 41.26367 -78.75265 13172 ft 271 kts 247°
2026-04-29 20:59 41.25616 -78.77593 12909 ft 271 kts 247°
2026-04-29 21:00 41.24882 -78.79859 12644 ft 271 kts 247°
2026-04-29 21:00 41.24142 -78.82149 12387 ft 270 kts 247°
2026-04-29 21:00 41.23388 -78.84475 12127 ft 269 kts 247°
2026-04-29 21:00 41.22658 -78.86724 11881 ft 269 kts 247°
2026-04-29 21:01 41.21918 -78.89008 11625 ft 268 kts 247°
2026-04-29 21:01 41.21181 -78.91279 11379 ft 269 kts 247°
2026-04-29 21:01 41.20439 -78.93557 11131 ft 269 kts 247°
2026-04-29 21:01 41.19696 -78.95836 10879 ft 268 kts 247°
2026-04-29 21:02 41.18957 -78.98110 10639 ft 268 kts 247°
2026-04-29 21:02 41.18218 -79.00382 10401 ft 269 kts 247°
2026-04-29 21:02 41.17474 -79.02658 10161 ft 268 kts 247°
2026-04-29 21:02 41.16733 -79.04926 9980 ft 268 kts 247°
2026-04-29 21:03 41.15995 -79.07189 9980 ft 268 kts 247°
2026-04-29 21:03 41.15257 -79.09452 9978 ft 266 kts 247°
2026-04-29 21:03 41.14521 -79.11705 9986 ft 266 kts 247°
2026-04-29 21:03 41.13783 -79.13959 9984 ft 267 kts 247°
2026-04-29 21:04 41.13042 -79.16215 9979 ft 267 kts 247°
2026-04-29 21:04 41.12309 -79.18456 9980 ft 264 kts 247°
2026-04-29 21:04 41.11573 -79.20686 9981 ft 263 kts 246°
2026-04-29 21:04 41.10451 -79.22590 9980 ft 267 kts 223°
2026-04-29 21:05 41.08975 -79.24096 9981 ft 267 kts 221°
2026-04-29 21:05 41.07540 -79.25666 9987 ft 267 kts 224°
2026-04-29 21:05 41.06143 -79.27295 10003 ft 268 kts 223°
2026-04-29 21:05 41.04725 -79.28910 9978 ft 268 kts 223°
2026-04-29 21:06 41.03308 -79.30496 9990 ft 267 kts 223°
2026-04-29 21:06 41.01892 -79.32086 9986 ft 267 kts 223°
2026-04-29 21:06 41.00479 -79.33683 9991 ft 267 kts 223°
2026-04-29 21:06 40.99067 -79.35275 9988 ft 266 kts 223°
2026-04-29 21:07 40.97657 -79.36860 9995 ft 267 kts 223°
2026-04-29 21:07 40.96246 -79.38446 9990 ft 265 kts 223°
2026-04-29 21:07 40.94869 -79.39995 9990 ft 264 kts 223°
2026-04-29 21:07 40.93446 -79.41595 9989 ft 264 kts 223°
2026-04-29 21:08 40.92044 -79.43169 9993 ft 265 kts 223°
2026-04-29 21:08 40.90641 -79.44744 9999 ft 265 kts 223°
2026-04-29 21:08 40.89233 -79.46323 9998 ft 265 kts 223°
2026-04-29 21:08 40.87844 -79.47880 9949 ft 266 kts 223°
2026-04-29 21:09 40.86414 -79.49485 9711 ft 268 kts 223°
2026-04-29 21:09 40.85007 -79.51061 9456 ft 268 kts 223°
2026-04-29 21:09 40.83588 -79.52649 9193 ft 268 kts 223°
2026-04-29 21:09 40.82167 -79.54237 8931 ft 267 kts 223°
2026-04-29 21:10 40.80747 -79.55825 8673 ft 266 kts 223°
2026-04-29 21:10 40.79340 -79.57398 8414 ft 266 kts 224°
2026-04-29 21:10 40.77928 -79.58973 8179 ft 264 kts 223°
2026-04-29 21:10 40.76530 -79.60530 7928 ft 262 kts 224°
2026-04-29 21:11 40.75129 -79.62097 7670 ft 265 kts 224°
2026-04-29 21:11 40.73731 -79.63657 7416 ft 262 kts 224°
2026-04-29 21:11 40.72335 -79.65208 7162 ft 263 kts 223°
2026-04-29 21:11 40.70941 -79.66760 6925 ft 262 kts 224°
2026-04-29 21:12 40.69551 -79.68304 6672 ft 262 kts 224°
2026-04-29 21:12 40.68160 -79.69855 6450 ft 261 kts 223°
2026-04-29 21:12 40.66780 -79.71385 6214 ft 259 kts 224°
2026-04-29 21:12 40.65400 -79.72916 5943 ft 259 kts 224°
2026-04-29 21:13 40.64041 -79.74429 5683 ft 259 kts 224°
2026-04-29 21:13 40.62642 -79.75983 5426 ft 260 kts 224°
2026-04-29 21:13 40.61278 -79.77493 5184 ft 260 kts 224°
2026-04-29 21:13 40.59906 -79.79015 5008 ft 256 kts 224°
2026-04-29 21:14 40.58555 -79.80508 5012 ft 243 kts 224°
2026-04-29 21:14 40.57317 -79.81871 5003 ft 222 kts 224°
2026-04-29 21:14 40.56188 -79.83117 5003 ft 202 kts 225°
2026-04-29 21:14 40.55145 -79.84261 4993 ft 189 kts 224°
2026-04-29 21:15 40.54122 -79.85329 4997 ft 189 kts 222°
2026-04-29 21:15 40.53090 -79.86422 4994 ft 191 kts 224°
2026-04-29 21:15 40.52058 -79.87495 4987 ft 186 kts 224°
2026-04-29 21:15 40.51074 -79.88492 5007 ft 163 kts 223°
2026-04-29 21:16 40.50225 -79.89347 4992 ft 151 kts 224°
2026-04-29 21:16 40.49501 -79.90337 4985 ft 149 kts 249°
2026-04-29 21:16 40.49392 -79.91664 4997 ft 147 kts 271°
2026-04-29 21:16 40.49370 -79.93024 4998 ft 153 kts 272°
2026-04-29 21:17 40.49390 -79.94433 4998 ft 154 kts 272°
2026-04-29 21:17 40.49415 -79.95840 4995 ft 153 kts 273°
2026-04-29 21:17 40.49464 -79.97233 4997 ft 152 kts 274°
2026-04-29 21:17 40.49494 -79.98612 4878 ft 147 kts 272°
2026-04-29 21:18 40.49519 -79.99934 4694 ft 144 kts 273°
2026-04-29 21:18 40.49559 -80.01224 4507 ft 141 kts 275°
2026-04-29 21:18 40.49584 -80.02445 4326 ft 122 kts 274°
2026-04-29 21:18 40.49619 -80.03536 4162 ft 122 kts 275°
2026-04-29 21:19 40.49646 -80.04655 3997 ft 122 kts 277°
2026-04-29 21:19 40.49672 -80.05763 3833 ft 121 kts 275°
2026-04-29 21:19 40.49705 -80.06873 3665 ft 123 kts 274°
2026-04-29 21:19 40.49730 -80.07989 3504 ft 124 kts 276°
2026-04-29 21:20 40.49767 -80.09131 3336 ft 123 kts 276°
2026-04-29 21:20 40.49790 -80.10251 3172 ft 122 kts 276°
2026-04-29 21:20 40.49819 -80.11358 3014 ft 122 kts 277°
2026-04-29 21:20 40.49849 -80.12438 2852 ft 112 kts 276°
2026-04-29 21:21 40.49880 -80.13440 2704 ft 109 kts 277°
2026-04-29 21:21 40.49900 -80.14420 2561 ft 109 kts 276°
2026-04-29 21:21 40.49929 -80.15402 2420 ft 105 kts 276°
2026-04-29 21:21 40.49950 -80.16342 2294 ft 101 kts 276°
2026-04-29 21:22 40.49954 -80.17230 2286 ft 99 kts 272°
2026-04-29 21:22 40.49949 -80.18147 2244 ft 103 kts 277°
2026-04-29 21:22 40.50001 -80.19106 2109 ft 105 kts 276°
2026-04-29 21:22 40.50019 -80.20042 1912 ft 101 kts 274°
2026-04-29 21:23 40.50053 -80.20974 1719 ft 101 kts 279°
2026-04-29 21:23 40.50077 -80.21904 1508 ft 103 kts 275°
2026-04-29 21:23 40.50110 -80.22829 1361 ft 102 kts 277°
2026-04-29 21:23 40.50139 -80.23784 1237 ft 101 kts 277°
2026-04-29 21:24 40.50160 -80.24592 1210 ft 73 kts 278°
2026-04-29 21:24 40.50179 -80.25140 1187 ft 50 kts 275°
2026-04-29 21:24 40.50164 -80.25379 1188 ft 12 kts 201°
2026-04-29 21:24 40.50104 -80.25352 1188 ft 8 kts 118°
2026-04-29 21:25 40.50085 -80.25276 1187 ft 16 kts 102°
2026-04-29 21:25 40.50074 -80.25093 1186 ft 19 kts 92°
2026-04-29 21:25 40.50069 -80.24915 1187 ft 27 kts 93°
2026-04-29 21:25 40.50060 -80.24585 1189 ft 40 kts 92°
2026-04-29 21:26 40.50051 -80.24248 1188 ft 34 kts 92°